Voltar ao catálogo

DX 1

AtivoRádio AmadorPO
NORAD 40071·PAYLOAD·🇷🇺 Russia

Lançado Jul 8, 2014 de Baikonur Cosmodrome

Loading…

Próximas Passagens (próximas 24 horas)

TLE

AtualizadoSource: Space-Track

Época: Sep 14, 2026, 14:29 UTC

1 40071U 14037C   26257.60401219  .00001480  00000-0  15911-3 0  9995
2 40071  98.3972 224.7936 0007055 353.9159   6.1971 14.90213500659422

Acompanhe DX 1 em tempo real com AllMySat

Download on the App Store